Location: Centrum přírodních věd - Hvězdárna Jičín
(50.4344°N, 15.3406°E)
Time: 12:13:40
(UTC+02:00)

ISS - Pass Details

Date: 24 May 2025
Orbit: 415 x 418 km, 51.6° (Epoch: 19 June)

Event Time Altitude Azimuth Distance (km) Brightness Sun altitude
Rises 21:23:45 0° 286° (WNW) 2,363 1.4 -4.8°
Reaches altitude 10° 21:25:56 10° 278° (W) 1,496 0.0 -5.0°
Maximum altitude 21:29:03 37° 210° (SSW) 669 -2.8 -5.4°
Drops below altitude 10° 21:32:09 10° 141° (SE) 1,486 -1.6 -5.8°
Enters shadow 21:32:39 - 139° (SE) 1,673 -1.4 -5.8°
